Temp
20 20 20 19 19 19 19 19 19 19 19 19 19 19 19 19 19 19 19 19 19 19 19 19 19 19 19 19 19 19 19 19 19 19 19 19 19 19 20 20 20 20
20 20 20 20 19 19 19 19 19 19 19 19 19 19 19 19 19 19 19 19 19 19 19 19 19 19 19 19 19 19 19 19 19 19 19 19 19 20 20 20 20 20
21 21 20 20 20 20 19 19 19 19 19 19 19 19 19 19 19 19 19 19 19 19 19 19 19 19 19 19 19 19 19 19 19 18 19 19 19 20 20 20 20 20
21 21 21 21 20 20 19 19 19 19 19 19 19 19 19 19 19 19 19 19 19 19 19 19 19 19 19 19 19 19 19 19 19 19 19 19 20 20 20 20 20 20
20 21 21 21 20 20 20 20 19 19 19 19 19 19 19 19 19 19 19 19 19 19 19 19 19 19 19 19 19 19 19 19 19 19 19 20 20 20 20 20 20 20
20 20 21 20 20 20 20 20 20 19 19 19 19 19 19 19 19 19 19 19 19 19 19 19 19 19 19 19 19 19 19 19 19 19 19 19 20 20 20 20 20 20
20 20 21 20 20 20 20 20 20 20 19 19 19 19 19 19 19 19 19 19 19 19 19 19 19 19 19 19 19 19 19 19 19 19 19 19 19 20 20 20 20 20
20 20 21 20 20 20 20 20 20 20 20 19 19 19 19 19 19 19 19 19 19 19 19 19 19 19 19 19 19 19 19 19 19 19 19 19 20 20 20 19 20 20
20 20 20 20 20 20 20 20 20 20 20 20 20 19 19 19 19 19 19 19 19 19 19 19 19 20 20 20 20 20 20 19 19 19 19 20 20 20 20 19 19 20
20 20 20 20 20 20 20 20 20 20 20 20 20 19 19 19 19 19 19 19 19 19 19 19 19 20 20 20 20 20 20 20 20 20 20 20 20 20 20 19 20 20
20 20 20 20 20 20 21 20 20 20 20 20 20 20 20 19 19 19 20 20 20 19 19 19 19 19 20 20 20 20 20 20 20 20 20 20 20 20 20 20 20 20
20 20 20 20 20 20 20 20 20 20 20 20 20 20 20 20 20 20 19 20 20 19 19 19 19 19 19 19 20 20 20 20 20 20 20 20 20 20 20 20 20 20
20 20 20 20 20 20 20 20 20 20 20 20 20 20 20 20 20 20 20 20 20 19 19 19 19 19 19 19 19 19 20 20 20 20 20 20 20 20 20 20 20 20
20 20 20 20 20 20 20 20 20 20 20 20 20 20 20 20 20 20 20 20 19 19 19 19 19 19 19 19 19 19 20 20 20 20 20 20 20 20 20 20 20 20
20 20 20 20 20 20 19 19 20 19 20 20 20 20 20 20 20 20 20 20 20 19 19 19 19 20 20 20 19 19 20 20 20 20 20 20 20 20 20 20 20 20
19 19 19 19 19 20 19 19 19 19 20 20 20 20 20 20 20 20 20 20 20 19 19 19 19 20 20 20 20 20 20 20 20 20 20 20 20 20 20 20 20 20
19 20 19 19 19 19 19 19 19 19 20 20 20 20 20 20 20 20 20 20 20 19 19 19 19 20 20 20 20 20 20 20 20 20 20 20 20 20 20 20 20 20
19 19 19 19 19 18 18 19 19 19 19 20 20 21 20 20 20 20 20 20 19 19 19 19 19 20 20 20 20 20 20 20 20 20 20 20 20 20 20 20 20 20
18 18 19 19 19 18 18 18 19 19 19 20 20 20 20 20 20 20 20 20 19 19 19 19 20 20 20 20 20 20 20 20 20 20 20 20 20 20 20 20 20 20
18 18 18 19 19 18 18 18 19 19 19 19 20 20 20 20 20 20 20 20 19 19 19 19 19 20 20 20 20 20 20 20 20 20 20 20 21 21 21 21 21 21
17 17 18 18 18 18 18 18 18 19 19 19 19 19 19 19 19 19 19 19 19 19 18 18 19 19 19 20 20 20 21 21 21 21 21 21 21 21 21 21 21 21
17 17 17 17 18 18 18 18 18 18 19 19 19 19 19 19 19 19 19 19 19 18 18 18 18 19 19 19 20 20 20 21 21 21 21 21 21 21 21 21 21 21
16 16 17 17 17 17 17 17 17 18 18 18 18 19 19 19 19 19 19 19 19 19 19 19 18 19 19 19 19 20 20 20 21 21 21 21 21 21 21 21 21 21
16 16 16 16 16 16 17 17 17 17 17 17 18 18 18 18 18 18 18 18 18 18 18 18 19 19 19 19 19 19 19 20 20 20 20 20 20 20 20 20 20 20
15 15 15 15 16 16 16 16 16 16 17 17 17 17 17 17 17 17 17 17 17 17 17 18 18 18 19 19 19 19 19 19 19 19 20 20 20 20 20 20 20 20
15 15 15 15 15 15 15 15 15 16 16 16 16 17 17 17 17 16 16 16 17 17 17 17 17 18 18 18 18 18 18 18 18 18 19 19 19 19 19 19 19 19
Height
1603 1604 1606 1607 1608 1609 1610 1611 1611 1612 1613 1614 1615 1615 1616 1616 1617 1617 1618 1619 1619 1620 1621 1621 1622 1623 1624 1624 1625 1625 1626 1627 1627 1628 1628 1629 1629 1629 1629 1630 1630 1630
1602 1603 1605 1606 1607 1608 1609 1610 1611 1611 1612 1613 1614 1615 1615 1616 1616 1617 1617 1618 1619 1620 1620 1621 1622 1623 1623 1624 1624 1625 1625 1626 1627 1627 1628 1628 1628 1628 1629 1629 1629 1630
1601 1602 1603 1605 1606 1607 1608 1609 1610 1611 1611 1612 1613 1614 1614 1615 1615 1616 1617 1617 1618 1619 1620 1621 1621 1622 1623 1623 1624 1625 1625 1625 1626 1626 1627 1627 1628 1628 1628 1628 1629 1629
1599 1601 1602 1604 1605 1606 1607 1608 1609 1610 1610 1611 1612 1613 1613 1614 1615 1615 1616 1617 1618 1618 1619 1620 1621 1621 1622 1622 1623 1624 1624 1625 1625 1625 1626 1626 1627 1627 1627 1628 1628 1628
1598 1599 1601 1602 1604 1605 1606 1607 1608 1609 1609 1610 1611 1612 1612 1613 1614 1615 1615 1616 1617 1618 1618 1619 1620 1620 1621 1621 1622 1623 1623 1624 1624 1624 1625 1625 1626 1626 1627 1627 1627 1627
1596 1598 1599 1601 1602 1603 1604 1605 1607 1607 1608 1609 1610 1611 1612 1612 1613 1614 1614 1615 1616 1617 1617 1618 1619 1619 1620 1621 1621 1622 1623 1623 1624 1624 1624 1625 1625 1625 1626 1626 1626 1627
1595 1596 1598 1599 1600 1602 1603 1604 1605 1606 1607 1608 1609 1610 1610 1611 1612 1613 1613 1614 1615 1616 1616 1617 1618 1618 1619 1620 1620 1621 1622 1622 1623 1623 1624 1624 1624 1625 1625 1625 1626 1626
1594 1595 1596 1598 1599 1600 1601 1602 1603 1604 1605 1606 1607 1608 1609 1610 1611 1611 1612 1613 1614 1615 1615 1616 1617 1618 1618 1619 1620 1620 1621 1621 1622 1622 1623 1623 1623 1624 1624 1624 1625 1625
1592 1593 1594 1596 1597 1598 1600 1601 1602 1603 1604 1605 1606 1607 1608 1609 1610 1610 1611 1612 1613 1614 1614 1615 1616 1617 1617 1618 1619 1619 1620 1620 1621 1621 1622 1622 1623 1623 1623 1624 1624 1624
1590 1591 1593 1594 1595 1596 1597 1599 1600 1601 1602 1603 1604 1605 1606 1607 1608 1609 1610 1611 1612 1613 1613 1614 1615 1616 1616 1617 1618 1618 1619 1619 1620 1620 1621 1621 1622 1622 1622 1623 1623 1623
1588 1589 1591 1592 1593 1594 1595 1597 1598 1599 1600 1601 1602 1603 1604 1606 1607 1608 1609 1610 1611 1612 1612 1613 1614 1615 1615 1616 1617 1617 1618 1618 1619 1619 1620 1620 1621 1621 1621 1622 1622 1622
1586 1587 1588 1590 1591 1592 1593 1594 1596 1597 1598 1599 1600 1601 1603 1604 1605 1606 1607 1608 1609 1610 1611 1612 1613 1614 1614 1615 1616 1616 1617 1617 1618 1618 1619 1619 1620 1620 1620 1620 1621 1621
1584 1585 1586 1588 1589 1590 1591 1592 1593 1594 1596 1597 1599 1600 1601 1602 1603 1605 1606 1607 1608 1609 1610 1611 1611 1612 1613 1614 1614 1615 1616 1616 1617 1617 1618 1618 1619 1619 1619 1619 1619 1620
1581 1583 1584 1586 1587 1588 1589 1590 1591 1592 1593 1595 1596 1598 1599 1600 1601 1603 1604 1605 1606 1607 1608 1609 1610 1611 1611 1612 1613 1614 1614 1615 1615 1616 1616 1617 1617 1617 1618 1618 1618 1618
1579 1581 1582 1584 1585 1586 1587 1588 1589 1590 1591 1592 1594 1595 1597 1598 1599 1600 1601 1603 1604 1605 1606 1607 1608 1609 1609 1610 1611 1612 1613 1614 1614 1615 1615 1615 1616 1616 1616 1616 1617 1617
1576 1578 1579 1581 1583 1584 1585 1586 1587 1588 1589 1590 1591 1592 1593 1595 1596 1598 1599 1600 1602 1603 1604 1605 1606 1607 1608 1609 1610 1611 1611 1612 1613 1613 1614 1614 1614 1614 1615 1615 1615 1615
1573 1574 1576 1578 1580 1582 1582 1583 1584 1585 1586 1587 1588 1589 1590 1592 1593 1595 1596 1598 1599 1601 1602 1603 1604 1605 1606 1607 1608 1609 1610 1610 1611 1612 1612 1613 1613 1613 1613 1613 1614 1614
1570 1571 1573 1575 1578 1579 1579 1580 1581 1582 1584 1585 1586 1587 1588 1590 1591 1592 1594 1595 1597 1599 1600 1602 1603 1604 1604 1605 1606 1607 1608 1608 1609 1610 1610 1611 1611 1611 1612 1612 1612 1612
1567 1568 1570 1572 1574 1575 1577 1578 1579 1580 1581 1582 1584 1585 1587 1588 1589 1591 1592 1594 1595 1597 1599 1600 1601 1602 1603 1603 1604 1605 1605 1606 1607 1607 1608 1609 1609 1609 1610 1610 1610 1610
1564 1566 1567 1568 1570 1571 1574 1575 1576 1577 1579 1581 1582 1583 1585 1586 1588 1589 1591 1592 1594 1595 1597 1598 1599 1600 1601 1601 1602 1603 1603 1604 1605 1605 1606 1606 1606 1607 1607 1607 1607 1608
1561 1563 1565 1566 1567 1568 1570 1572 1574 1575 1577 1578 1580 1581 1582 1584 1586 1587 1588 1590 1591 1592 1594 1595 1596 1597 1598 1599 1600 1601 1601 1602 1603 1603 1604 1604 1604 1604 1605 1605 1605 1605
1558 1559 1561 1562 1563 1565 1567 1570 1572 1573 1575 1576 1577 1578 1580 1581 1582 1583 1585 1586 1587 1589 1590 1591 1592 1594 1595 1597 1598 1599 1600 1600 1600 1601 1601 1602 1602 1602 1603 1603 1603 1603
1557 1558 1559 1560 1561 1563 1565 1568 1569 1571 1572 1573 1575 1576 1577 1578 1579 1580 1581 1583 1585 1586 1587 1588 1589 1591 1592 1594 1596 1597 1598 1598 1598 1598 1599 1599 1600 1600 1600 1600 1600 1600
1558 1558 1559 1561 1562 1563 1564 1566 1567 1569 1570 1571 1572 1573 1575 1576 1577 1578 1580 1582 1583 1583 1584 1586 1586 1587 1589 1590 1592 1594 1595 1596 1596 1596 1596 1597 1597 1597 1597 1597 1597 1597
1559 1559 1560 1561 1562 1563 1564 1564 1565 1567 1568 1569 1570 1571 1572 1574 1575 1576 1577 1579 1580 1581 1582 1583 1584 1585 1586 1587 1589 1590 1592 1593 1594 1594 1594 1594 1594 1594 1594 1595 1595 1594
1560 1560 1561 1561 1562 1563 1564 1564 1565 1565 1566 1567 1568 1569 1571 1571 1572 1573 1575 1577 1579 1581 1582 1582 1582 1583 1584 1584 1585 1587 1588 1590 1591 1592 1592 1592 1592 1592 1592 1592 1592 1592
Wind_Speed
13 12 12 12 11 10 8 7 6 6 6 5 5 5 5 5 6 7 8 8 8 8 9 9 8 8 8 8 7 8 8 7 7 7 7 7 7 6 7 7 7 6
14 14 13 13 13 11 10 8 7 6 6 5 5 4 5 6 7 7 8 8 8 7 8 8 8 8 8 8 7 8 8 7 6 6 7 7 7 7 7 7 7 7
15 15 14 14 13 12 11 9 8 7 6 6 6 5 5 6 7 8 8 8 8 8 8 8 8 8 8 8 8 8 8 8 7 7 7 7 7 8 8 8 8 7
16 15 15 15 14 13 12 11 9 8 8 7 6 6 6 6 7 8 8 8 8 8 9 9 8 8 8 8 8 8 8 8 8 8 8 8 8 8 8 8 8 8
16 16 16 15 15 14 13 13 11 10 9 8 8 7 7 7 8 8 8 9 9 9 9 9 9 8 9 9 8 8 8 8 9 9 8 8 8 8 8 8 8 8
17 16 17 16 15 15 15 14 13 11 10 10 9 9 9 8 8 8 9 9 9 9 9 9 9 9 9 9 9 9 9 9 9 9 9 8 8 8 8 8 8 8
17 16 17 17 16 16 16 16 15 13 12 11 10 10 10 9 9 9 9 9 9 9 9 10 10 9 9 9 9 9 8 9 9 9 9 8 7 8 7 7 7 7
18 16 16 17 17 17 17 17 16 15 14 13 11 11 10 10 10 9 10 10 10 10 10 10 10 10 9 10 9 9 9 9 9 8 8 7 7 7 7 7 7 7
19 18 17 17 17 18 18 18 17 16 15 14 13 12 11 11 10 10 10 10 10 10 10 10 10 11 11 10 10 9 9 9 9 8 8 8 7 7 7 7 7 7
19 18 18 18 18 18 17 18 18 17 16 16 15 14 12 11 10 11 11 11 11 11 10 10 10 11 11 11 10 10 10 9 9 9 9 8 8 7 7 7 8 7
19 18 17 17 18 18 17 17 17 18 17 17 16 15 14 12 11 11 12 12 12 11 11 10 10 10 11 11 11 10 9 9 9 9 9 9 9 8 7 7 7 7
21 20 19 17 17 17 18 18 18 18 18 17 17 16 15 14 13 12 12 13 13 12 12 11 10 10 10 10 10 9 9 9 9 9 10 10 10 9 8 8 7 7
22 21 20 19 17 17 18 19 19 18 18 18 17 17 16 16 15 14 13 13 13 14 13 12 12 11 11 10 10 9 9 9 9 9 10 10 10 10 9 9 8 8
23 21 21 21 20 18 18 19 19 19 19 18 18 17 17 17 16 15 15 14 15 15 15 14 13 12 12 11 11 10 10 9 9 9 9 10 10 10 10 10 10 9
23 21 20 20 20 19 18 19 20 20 19 19 18 17 17 17 17 16 16 16 16 16 16 15 15 14 13 12 11 10 10 9 9 8 8 9 9 9 10 10 10 9
25 23 21 20 19 18 18 19 20 20 20 20 20 19 18 18 17 17 16 16 16 16 16 16 16 15 14 13 12 11 10 10 9 8 8 8 8 9 9 9 9 9
28 26 25 23 21 19 18 19 20 20 20 21 21 20 19 19 19 18 17 16 16 16 16 16 16 16 14 13 13 13 12 11 11 10 10 10 10 10 9 9 9 9
28 28 27 26 25 23 20 19 20 21 21 22 22 21 20 19 19 19 19 18 18 17 17 17 17 16 14 13 14 15 15 14 13 13 12 12 12 11 11 10 10 10
27 27 27 26 26 26 23 20 20 21 22 22 21 21 20 19 19 19 19 19 19 18 18 17 16 16 15 15 15 16 17 17 16 15 14 13 13 12 12 12 12 12
27 27 27 26 27 27 25 23 22 22 22 21 20 20 20 19 18 18 18 18 18 18 16 16 16 16 15 15 16 16 17 18 18 17 16 15 14 14 14 14 14 14
25 25 26 27 28 28 27 25 23 22 20 20 19 18 18 18 18 18 18 18 17 16 15 16 17 17 16 16 16 16 16 17 18 18 18 17 16 16 16 16 16 16
20 21 22 23 26 27 27 26 25 23 21 19 17 17 17 18 18 18 19 20 19 18 17 17 18 18 18 17 16 16 16 16 16 17 18 19 19 18 18 18 18 18
10 14 17 19 22 24 24 25 25 23 21 19 18 17 18 18 19 20 20 20 19 18 18 18 17 17 17 17 17 17 17 16 16 16 17 18 19 19 19 19 19 19
6 7 10 12 14 16 19 21 21 21 20 18 18 17 16 16 18 20 19 17 16 17 18 18 17 16 16 17 17 18 18 18 18 17 17 17 17 18 19 19 19 19
7 6 5 5 6 8 11 13 16 17 17 16 16 16 16 15 16 16 15 15 15 17 18 18 17 17 17 18 18 19 18 19 18 18 18 18 18 18 19 20 20 21
9 8 6 5 5 5 6 7 10 13 14 13 13 14 15 16 15 13 12 13 14 14 15 16 16 17 17 18 19 20 19 19 19 19 19 19 19 19 20 20 20 21
Wind_Direction
215 216 215 215 214 213 210 210 221 233 240 245 252 256 246 234 227 223 219 213 211 213 215 219 219 219 221 219 218 220 220 219 225 239 250 256 259 254 244 240 243 247
214 217 217 217 218 220 216 208 213 223 231 237 242 247 240 231 227 224 220 214 209 209 212 217 219 221 226 225 223 225 220 215 221 238 248 250 251 250 248 246 247 249
216 217 220 220 220 222 221 217 214 215 221 228 229 227 223 222 222 222 220 214 209 207 210 215 219 223 229 229 227 228 224 220 225 237 240 238 240 245 248 248 248 250
221 220 221 223 222 222 222 222 220 217 216 218 219 217 213 213 218 220 222 219 214 210 210 215 218 221 226 228 227 227 228 227 228 233 234 232 234 240 246 251 252 252
228 225 223 225 224 222 222 223 222 219 216 213 211 213 214 215 219 223 226 225 222 218 216 217 218 221 226 227 225 225 229 232 232 231 230 229 232 237 242 249 255 258
233 230 227 227 226 224 224 224 222 220 218 218 215 214 217 219 223 228 231 231 229 228 225 223 223 224 229 229 226 225 227 231 232 231 229 227 229 233 237 244 251 257
232 232 230 229 228 227 228 227 223 220 220 223 223 220 218 220 225 232 235 235 232 231 230 228 226 226 230 232 229 226 226 226 228 229 228 227 227 230 233 239 244 248
232 231 230 230 230 231 231 230 227 224 223 226 227 225 223 223 225 230 236 237 234 233 233 232 231 229 230 232 233 230 225 224 227 230 231 228 226 228 231 236 240 241
234 231 229 228 230 233 234 234 233 230 228 228 228 228 228 226 226 228 233 236 235 233 232 232 232 231 231 233 234 232 227 226 228 232 235 233 229 228 231 237 242 243
234 231 229 228 228 231 234 235 236 235 234 231 229 228 229 229 228 228 230 232 234 233 231 230 229 229 232 234 234 234 232 231 232 235 238 237 232 230 232 237 242 245
232 230 230 230 229 230 232 234 236 238 237 234 231 228 229 231 229 228 230 232 232 231 231 230 229 230 232 234 236 239 240 240 240 242 244 243 241 237 235 238 244 249
235 233 232 232 233 233 233 233 235 237 238 237 234 230 229 230 230 228 230 232 232 232 232 231 231 233 232 232 236 240 243 247 249 249 250 251 250 248 244 244 248 252
242 241 239 236 235 235 234 233 233 236 237 236 235 234 232 233 233 230 229 231 231 231 231 231 231 232 233 233 233 236 240 246 251 253 254 254 255 255 253 253 254 255
245 245 243 239 236 234 233 232 231 232 234 234 234 234 235 236 236 235 232 231 230 229 229 229 229 229 230 229 229 231 235 239 243 246 249 251 252 254 255 256 258 260
244 244 242 240 236 235 235 232 229 229 230 230 230 231 234 235 236 238 236 232 228 226 225 225 226 226 225 224 225 227 231 235 237 239 242 246 248 248 251 252 253 256
240 240 240 241 237 235 235 233 231 230 229 227 226 226 228 231 232 234 235 232 226 224 224 224 226 226 224 222 223 224 227 230 233 237 240 243 245 244 243 244 245 249
237 236 236 239 240 238 233 229 228 229 230 230 228 226 226 226 228 228 227 226 222 223 226 227 229 231 228 226 224 223 227 233 237 242 247 250 251 250 248 246 247 250
236 235 234 235 240 242 237 230 226 225 227 228 229 230 229 227 227 226 224 222 221 224 228 230 232 233 231 230 228 224 226 232 238 243 248 252 254 256 257 258 259 261
232 233 232 232 236 240 238 231 227 225 225 225 227 229 230 228 228 227 224 221 222 226 230 233 237 235 231 231 231 228 229 232 236 241 244 248 251 253 256 258 259 260
231 233 233 235 237 237 235 231 228 227 227 227 227 228 228 230 232 232 231 228 228 232 237 242 245 242 237 235 233 232 233 234 237 241 244 247 248 249 251 253 254 256
230 233 234 236 238 236 233 232 230 228 229 230 229 227 227 230 232 232 233 233 234 236 242 249 253 253 250 247 241 238 238 238 240 242 245 247 249 250 252 253 254 255
215 222 225 230 236 238 237 235 232 230 230 231 229 226 225 226 226 225 226 229 231 233 236 243 250 255 257 257 254 251 248 247 246 245 246 248 250 253 255 257 258 259
179 194 202 210 221 229 233 233 230 227 224 223 223 224 224 223 223 223 224 227 232 236 238 241 245 251 256 259 260 259 258 256 255 253 252 252 253 255 258 260 263 264
117 146 169 183 196 206 212 215 216 216 217 218 218 219 221 222 226 230 230 229 232 236 239 239 240 244 251 255 257 258 259 259 258 258 257 256 257 258 260 263 265 267
93 105 125 147 165 178 188 194 197 200 206 212 212 211 211 209 209 217 220 216 218 226 231 231 233 238 245 250 252 254 256 256 256 257 257 257 258 260 262 263 265 266
76 88 100 110 119 131 146 166 184 192 195 196 196 199 205 207 205 206 211 209 210 219 225 227 230 234 237 241 245 247 248 250 251 252 254 255 256 257 259 261 261 263